Location: Beuerbach
(48.1459°N, 10.9174°E)
Time: 01:06:50
(UTC+00:00)

Meteor 1-21 - Pass Details

Date: 05 August 2024
Orbit: 845 x 885 km, 81.2° (Epoch: 09 September)

Event Time Altitude Azimuth Distance (km) Brightness Sun altitude
Rises 01:08:33 0° 348° (NNW) 3,419 8.2 -20.8°
Reaches altitude 10° 01:10:58 10° 348° (NNW) 2,478 7.3 -20.6°
Maximum altitude 01:16:36 90° 56° (NE) 853 4.1 -20.2°
Enters shadow 01:19:37 29° 170° (S) 1,514 5.1 -19.9°
